{"data":{"norad_id":51742,"epoch":"2026-05-24T22:52:49.248192Z","epoch_age_seconds":79392,"freshness":"FRESH","line1":"1 51742U 22016AE  26144.95334778 -.00000339  00000+0 -31931-5 0  9991","line2":"2 51742  53.2148 336.9524 0001502  93.4180 266.6984 15.08841682235070","mean_motion":15.08841682,"eccentricity":0.0001502,"inclination_deg":53.2148,"raan_deg":336.9524,"arg_perigee_deg":93.418,"mean_anomaly_deg":266.6984,"bstar":-3.1931e-6,"rev_number":23507,"period_min":95.437448287567,"perigee_km":538.69918290556,"apogee_km":540.77731262999,"semimajor_km":6917.8752477678,"source":"CELESTRAK","updated_at":"2026-05-25T13:38:16.944447Z"}}